Location: Arroyo de Valdeoliva
(40.1604°N, 4.9878°W)
Time: 16:33:55
(UTC+00:00)

Meteor 2-20 - Pass Details

Date: 11 December 2025
Orbit: 937 x 959 km, 82.5° (Epoch: 16 January)

Event Time Altitude Azimuth Distance (km) Brightness Sun altitude
Rises 18:10:06 0° 180° (S) 3,624 7.7 -14.0°
Reaches altitude 10° 18:12:35 10° 178° (S) 2,682 7.0 -14.5°
Maximum altitude 18:18:42 74° 95° (E) 998 4.4 -15.6°
Drops below altitude 10° 18:24:50 10° 12° (NNE) 2,692 6.5 -16.7°
Sets 18:27:21 0° 10° (N) 3,639 7.2 -17.2°
